Home   Weather   Glyfada   Past weeks

Flag for Greece Past Weather in Glyfada, Greece — Yesterday and Last 2 Weeks

Now
79 °F

Sunny.


Feels Like: 79 °F
Forecast: 58 / 82 °F
Wind: 9 mph from Northeast

Location: Eleftherios Venizelos International Airport

Current Time: Oct 1, 2016 at 1:27:53 PM

Latest Report: Oct 1, 2016 at 12:50 PM


Visibility: 10 mi

Pressure: 30.04 "Hg

Humidity: 32%

Dew Point: 46 °F

Location of GlyfadaLocation

Past Weather in Glyfada — Graph

°F

Glyfada Temperature Yesterday

Maximum temperature yesterday: 79 °F (at 1:50 PM)
Minimum temperature yesterday: 50 °F (at 6:20 AM)
Average temperature yesterday: 65 °F

High & Low Weather Summary for the Past Weeks

 TemperatureHumidityPressure
High95 °F (Sep 18, 1:50 PM)94% (Sep 22, 1:50 AM)30.33 "Hg (Sep 22, 1:50 AM)
Low50 °F (Sep 30, 6:20 AM)23% (Sep 18, 1:50 PM)29.71 "Hg (Sep 20, 4:50 AM)
Average70 °F54%30.05 "Hg
* Reported Sep 16 11:20 AM — Oct 1 11:50 AM, Glyfada, Weather by CustomWeather, © 2016

Note: Actual official high and low records may vary slightly from our data, if they occured in-between our weather recording intervals... More about our weather records

Advertising

Glyfada Weather History for the Previous 24 Hours

Scroll right to see more
 ConditionsComfort  
Time TempWeatherWind HumidityBarometerVisibility
11:50 AM
Sat, Oct 1
79 °FSunny.7 mph34%30.07 "Hg10 mi
11:20 AM77 °FPassing clouds.6 mph36%30.07 "HgN/A
10:50 AM77 °FPassing clouds.6 mph32%30.07 "HgN/A
10:20 AM75 °FSunny.1 mph34%30.07 "Hg10 mi
9:50 AM72 °FSunny.2 mph41%30.07 "Hg10 mi
9:20 AM66 °FSunny.No wind60%30.07 "Hg10 mi
8:50 AM61 °FSunny.No wind63%30.04 "Hg10 mi
8:20 AM57 °FSunny.1 mph67%30.04 "Hg10 mi
7:50 AM54 °FSunny.2 mph72%30.04 "Hg10 mi
7:20 AM54 °FSunny.2 mph72%30.04 "Hg10 mi
6:50 AM54 °FClear.2 mph72%30.04 "Hg10 mi
6:20 AM52 °FClear.3 mph82%30.04 "Hg10 mi
5:50 AM52 °FClear.2 mph77%30.04 "Hg10 mi
5:20 AM52 °FClear.3 mph77%30.04 "Hg10 mi
4:50 AM52 °FClear.1 mph82%30.04 "Hg10 mi
4:20 AM52 °FClear.2 mph77%30.07 "Hg10 mi
3:50 AM54 °FClear.5 mph77%30.07 "Hg10 mi
3:20 AM54 °FClear.3 mph82%30.07 "Hg10 mi
2:50 AM54 °FClear.5 mph77%30.07 "Hg10 mi
2:20 AM55 °FClear.No wind77%30.07 "Hg10 mi
1:50 AM55 °FClear.3 mph77%30.09 "Hg10 mi
1:20 AM55 °FClear.2 mph72%30.09 "Hg10 mi
12:50 AM57 °FClear.5 mph72%30.09 "Hg10 mi
12:20 AM57 °FClear.5 mph72%30.09 "Hg10 mi
11:50 PM
Fri, Sep 30
57 °FClear.6 mph72%30.09 "Hg10 mi
11:20 PM59 °FClear.6 mph72%30.12 "Hg10 mi
10:50 PM59 °FClear.No wind68%30.12 "Hg10 mi
10:20 PM64 °FClear.1 mph60%30.12 "Hg10 mi
9:50 PM66 °FClear.2 mph56%30.09 "Hg10 mi
9:20 PM68 °FClear.3 mph56%30.09 "Hg10 mi
8:50 PM68 °FPassing clouds.No wind56%30.09 "HgN/A
8:20 PM70 °FPassing clouds.2 mph57%30.09 "HgN/A
7:50 PM70 °FPassing clouds.3 mph57%30.09 "HgN/A
7:20 PM72 °FPassing clouds.7 mph53%30.09 "HgN/A
6:50 PM73 °FPassing clouds.9 mph47%30.09 "HgN/A
5:50 PM75 °FPassing clouds.13 mph39%30.09 "HgN/A
5:20 PM77 °FPassing clouds.9 mph39%30.09 "HgN/A
4:50 PM79 °FPassing clouds.10 mph32%30.09 "HgN/A
4:20 PM79 °FPassing clouds.12 mph32%30.09 "HgN/A
3:50 PM79 °FPassing clouds.12 mph32%30.12 "HgN/A
3:20 PM79 °FPassing clouds.15 mph34%30.12 "HgN/A
2:50 PM79 °FPassing clouds.12 mph37%30.12 "HgN/A
2:20 PM79 °FPassing clouds.14 mph32%30.12 "HgN/A
1:50 PM79 °FPassing clouds.12 mph34%30.15 "HgN/A
1:20 PM77 °FPassing clouds.15 mph32%30.15 "HgN/A
Weather by CustomWeather, © 2016

See weather overviewHow to use our weather pages